Weather History for KNJK - May, 2014

Change the Weather History Date:

Monday, May 12, 2014

  Actual Average Record
Temperature  
Mean Temperature 74 °F -  
Max Temperature 97 °F 90 °F 102 °F (2006)
Min Temperature 57 °F 64 °F 56 °F (2000)
Cooling Degree Days 9    
Growing Degree Days 24 (Base 50)    
Moisture  
Dew Point 22 °F    
Average Humidity 13    
Maximum Humidity 27    
Minimum Humidity 6    
Precipitation  
Precipitation 0.00 in - - ()
Sea Level Pressure  
Sea Level Pressure 30.01 in    
Wind  
Wind Speed 6 mph (NW)    
Max Wind Speed 13 mph    
Max Gust Speed 18 mph    
Visibility 10 miles    
Events      
Averages and records for this station are not official NWS values.
T = Trace of Precipitation, MM = Missing Value Source: NWS Daily Summary

Daily Weather History Graph

Daily Weather History Graph

Search for Another Location

Airport or City:

Trip Planner

Search our weather history database for the weather conditions in past years. The results will help you decide how hot, cold, wet, or windy it might be!

Date:

Astronomy

May. 12, 2014 Rise Set
Actual Time 5:45 AM PDT 7:32 PM PDT
Civil Twilight 5:18 AM PDT 7:59 PM PDT
Nautical Twilight 4:46 AM PDT 8:32 PM PDT
Astronomical Twilight 4:11 AM PDT 9:06 PM PDT
Moon 5:41 PM PDT (5/12) 4:19 AM PDT (5/12)
Length of Visible Light 14h 40m
Length of Day
13h 46m
Waxing Gibbous, 95% of the Moon is Illuminated
May 12
Waxing Gibbous
May 14
Full
May 21
Last Quarter
May 28
New
Jun 5
First Quarter

Hourly Weather History & Observations

Time (PDT) Temp. Dew Point Humidity Pressure Visibility Wind Dir Wind Speed Gust Speed Precip Events Conditions
5:56 AM 57.2 °F 23.0 °F 27% 29.96 in 10.0 mi West 3.5 mph - N/A   Clear
6:56 AM 60.1 °F 18.0 °F 20% 30.04 in 10.0 mi WSW 3.5 mph - N/A   Clear
7:56 AM 71.1 °F 21.9 °F 16% 30.06 in 10.0 mi NW 4.6 mph - N/A   Partly Cloudy
8:56 AM 78.1 °F 30.0 °F 17% 30.08 in 10.0 mi WNW 5.8 mph - N/A   Partly Cloudy
9:56 AM 82.0 °F 28.9 °F 14% 30.09 in 10.0 mi North 6.9 mph - N/A   Partly Cloudy
10:56 AM 84.0 °F 25.0 °F 12% 30.08 in 10.0 mi NNW 5.8 mph - N/A   Partly Cloudy
11:56 AM 87.1 °F 24.1 °F 10% 30.06 in 10.0 mi NNW 5.8 mph - 0.00 in   Partly Cloudy
12:56 PM 89.1 °F 18.0 °F 7% 30.04 in 10.0 mi ENE 12.7 mph - N/A   Clear
1:56 PM 90.0 °F 16.0 °F 7% 30.02 in 10.0 mi NNE 11.5 mph 17.3 mph N/A   Clear
2:56 PM 90.0 °F 18.0 °F 7% 30.00 in 10.0 mi North 6.9 mph 18.4 mph N/A   Clear
3:56 PM 91.0 °F 17.1 °F 7% 29.98 in 10.0 mi North 8.1 mph - N/A   Clear
4:56 PM 91.0 °F 14.0 °F 6% 29.96 in 10.0 mi North 8.1 mph - N/A   Clear
5:56 PM 91.0 °F 16.0 °F 6% 29.94 in 10.0 mi NNE 5.8 mph - N/A   Clear
6:56 PM 88.0 °F 16.0 °F 7% 29.94 in 10.0 mi WNW 4.6 mph - N/A   Clear
7:56 PM 81.0 °F 25.0 °F 13% 29.95 in 10.0 mi WSW 4.6 mph - N/A   Partly Cloudy
8:56 PM 79.0 °F 23.0 °F 13% 29.96 in 10.0 mi SW 5.8 mph - N/A   Partly Cloudy
9:56 PM 72.0 °F 26.1 °F 18% 29.99 in 10.0 mi SSW 4.6 mph - N/A   Clear
10:56 PM 66.0 °F 28.0 °F 24% 30.01 in 10.0 mi Calm Calm - N/A   Clear
11:56 PM 68.0 °F 21.9 °F 17% 30.03 in 10.0 mi North - - N/A   Clear